Le nostre stazioni meteo in Italia

Pubblicità
Il mio iltempo24.it
Cozzo Spadaro, Italia (16480): Temperatura & dewpoint: 17.07.2019 06:00:00 - 23.07.2019 06:00:00 (CEST)Cozzo Spadaro, Italia (16480): velocità del vento: 17.07.2019 06:00:00 - 23.07.2019 06:00:00 (CEST)Cozzo Spadaro, Italia (16480): direzione del vento: 17.07.2019 06:00:00 - 23.07.2019 06:00:00 (CEST)Cozzo Spadaro, Italia (16480): reduced air pressure: 17.07.2019 06:00:00 - 23.07.2019 06:00:00 (CEST)Cozzo Spadaro, Italia (16480): visibility: 17.07.2019 06:00:00 - 23.07.2019 06:00:00 (CEST)Cozzo Spadaro, Italia (16480): ore di luce: 17.07.2019 06:00:00 - 23.07.2019 06:00:00 (CEST)
Data & Tempo tt [°C] td [°C] ff [km/h] ff [kn] dd ppp [hPa] vv [km] sd [min]
23.07.2019 06:00:00 - - - - - - - -
23.07.2019 05:00:00 - - - - - - - -
23.07.2019 04:00:00 - - - - - - - -
23.07.2019 03:00:00 - - - - - - - -
23.07.2019 02:00:00 - - - - - - - -
23.07.2019 01:00:00 - - - - - - - -
23.07.2019 00:00:00 - - - - - - - -
22.07.2019 23:00:00 - - - - - - - -
22.07.2019 22:00:00 - - - - - - - -
22.07.2019 21:00:00 - - - - - - - -
22.07.2019 20:00:00 28,4 21,2 4 2 O 1017,0 20 24
22.07.2019 19:00:00 29,2 19,8 5 3 O 1017,2 20 60
22.07.2019 18:00:00 29,4 20,8 4 2 SO 1017,8 20 60
22.07.2019 17:00:00 29,8 23,7 4 2 SSE 1017,8 20 60
22.07.2019 16:00:00 30,0 23,9 5 3 ESE 1018,0 20 60
22.07.2019 15:00:00 30,0 24,9 9 5 E 1018,4 20 60
22.07.2019 14:00:00 30,4 23,6 11 6 ENE 1018,5 20 60
22.07.2019 13:00:00 31,0 21,8 13 7 E 1018,5 20 60
22.07.2019 12:00:00 31,2 18,6 4 2 E 1018,2 20 60
22.07.2019 11:00:00 29,8 18,0 4 2 E 1017,9 20 60
22.07.2019 10:00:00 29,8 18,3 2 1 SE 1017,5 20 60
22.07.2019 09:00:00 28,8 22,1 0 0 N 1017,5 20 60
22.07.2019 08:00:00 26,0 20,1 0 0 N 1017,6 20 54
22.07.2019 07:00:00 - - - - - - - -
22.07.2019 06:00:00 - - - - - - - -
22.07.2019 05:00:00 - - - - - - - -
22.07.2019 04:00:00 - - - - - - - -
22.07.2019 03:00:00 - - - - - - - -
22.07.2019 02:00:00 - - - - - - - -
22.07.2019 01:00:00 - - - - - - - -
22.07.2019 00:00:00 - - - - - - - -
21.07.2019 23:00:00 - - - - - - - -
21.07.2019 22:00:00 - - - - - - - -
21.07.2019 21:00:00 - - - - - - - -
21.07.2019 20:00:00 26,0 22,3 5 3 O 1017,9 20 18
21.07.2019 19:00:00 26,4 21,4 5 3 SO 1017,9 20 60
21.07.2019 18:00:00 27,2 21,3 8 4 SO 1017,9 20 60
21.07.2019 17:00:00 27,8 19,9 5 3 SSO 1017,9 20 60
21.07.2019 16:00:00 28,0 20,8 8 4 SSE 1018,1 20 60
21.07.2019 15:00:00 28,2 21,5 8 4 SE 1018,2 20 60
21.07.2019 14:00:00 28,6 22,1 5 3 ESE 1018,1 20 60
21.07.2019 13:00:00 28,6 22,1 5 3 ESE 1018,2 20 60
21.07.2019 12:00:00 28,4 21,7 5 3 ESE 1018,3 20 60
21.07.2019 11:00:00 27,8 22,5 8 4 E 1018,3 20 60
21.07.2019 10:00:00 27,4 22,6 9 5 E 1018,5 20 60
21.07.2019 09:00:00 26,8 22,4 9 5 ENE 1018,6 20 60
21.07.2019 08:00:00 26,2 23,3 9 5 ENE 1018,2 20 60
21.07.2019 07:00:00 - - - - - - - -
21.07.2019 06:00:00 - - - - - - - -
21.07.2019 05:00:00 - - - - - - - -
21.07.2019 04:00:00 - - - - - - - -
21.07.2019 03:00:00 - - - - - - - -
21.07.2019 02:00:00 - - - - - - - -
21.07.2019 01:00:00 - - - - - - - -
21.07.2019 00:00:00 - - - - - - - -
20.07.2019 23:00:00 - - - - - - - -
20.07.2019 22:00:00 - - - - - - - -
20.07.2019 21:00:00 - - - - - - - -
20.07.2019 20:00:00 25,0 22,7 5 3 OSO 1016,9 10 0
20.07.2019 19:00:00 25,8 22,9 8 4 SO 1016,9 10 60
20.07.2019 18:00:00 26,0 22,3 8 4 SO 1016,9 20 60
20.07.2019 17:00:00 27,0 20,6 8 4 SO 1016,9 20 60
20.07.2019 16:00:00 28,6 15,2 5 3 SO 1016,8 20 60
20.07.2019 15:00:00 27,0 22,2 9 5 SO 1017,1 20 60
20.07.2019 14:00:00 27,2 21,9 11 6 E 1017,1 20 60
20.07.2019 13:00:00 27,6 22,3 8 4 SSE 1017,1 20 60
20.07.2019 12:00:00 28,2 22,0 8 4 SE 1016,9 20 60
20.07.2019 11:00:00 28,0 23,4 8 4 ESE 1016,4 20 60
20.07.2019 10:00:00 27,0 23,5 4 2 ENE 1016,1 10 60
20.07.2019 09:00:00 26,2 23,3 4 2 ENE 1015,9 10 60
20.07.2019 08:00:00 25,8 24,0 4 2 E 1015,9 10 54
20.07.2019 07:00:00 - - - - - - - -
20.07.2019 06:00:00 - - - - - - - -
20.07.2019 05:00:00 - - - - - - - -
20.07.2019 04:00:00 - - - - - - - -
20.07.2019 03:00:00 - - - - - - - -
20.07.2019 02:00:00 - - - - - - - -
20.07.2019 01:00:00 - - - - - - - -
20.07.2019 00:00:00 - - - - - - - -
19.07.2019 23:00:00 - - - - - - - -
19.07.2019 22:00:00 - - - - - - - -
19.07.2019 21:00:00 - - - - - - - -
19.07.2019 20:00:00 25,0 20,7 9 5 O 1013,9 20 0
19.07.2019 19:00:00 25,4 20,7 11 6 O 1013,9 20 60
19.07.2019 18:00:00 26,2 20,8 11 6 OSO 1014,0 20 60
19.07.2019 17:00:00 27,0 19,9 9 5 SO 1014,2 20 60
19.07.2019 16:00:00 27,6 20,2 9 5 SO 1014,4 20 60
19.07.2019 15:00:00 27,6 19,1 9 5 SSE 1014,4 20 60
19.07.2019 14:00:00 28,0 19,5 8 4 SE 1014,4 20 60
19.07.2019 13:00:00 28,2 20,7 8 4 ESE 1014,3 20 60
19.07.2019 12:00:00 28,0 21,1 9 5 E 1014,1 20 60
19.07.2019 11:00:00 27,4 20,7 9 5 E 1013,9 20 60
19.07.2019 10:00:00 26,4 21,6 5 3 ENE 1013,9 20 60
19.07.2019 09:00:00 25,8 21,9 4 2 ENE 1013,9 20 60
19.07.2019 08:00:00 25,0 22,3 4 2 NE 1013,6 10 54
19.07.2019 07:00:00 - - - - - - - -
19.07.2019 06:00:00 - - - - - - - -
19.07.2019 05:00:00 - - - - - - - -
19.07.2019 04:00:00 - - - - - - - -
19.07.2019 03:00:00 - - - - - - - -
19.07.2019 02:00:00 - - - - - - - -
19.07.2019 01:00:00 - - - - - - - -
19.07.2019 00:00:00 - - - - - - - -
18.07.2019 23:00:00 - - - - - - - -
18.07.2019 22:00:00 - - - - - - - -
18.07.2019 21:00:00 - - - - - - - -
18.07.2019 20:00:00 24,0 21,3 15 8 O 1010,9 20 12
18.07.2019 19:00:00 25,0 20,7 15 8 O 1010,9 20 60
18.07.2019 18:00:00 26,0 19,6 16 9 O 1010,9 20 60
18.07.2019 17:00:00 27,0 19,9 13 7 O 1011,0 20 60
18.07.2019 16:00:00 27,2 18,8 13 7 OSO 1011,0 20 60
18.07.2019 15:00:00 27,0 20,3 8 4 OSO 1011,2 20 60
18.07.2019 14:00:00 26,2 20,8 11 6 OSO 1011,4 20 60
18.07.2019 13:00:00 27,4 21,9 8 4 SSE 1011,4 20 60
18.07.2019 12:00:00 27,8 22,1 8 4 E 1011,4 20 60
18.07.2019 11:00:00 27,0 21,3 5 3 E 1011,4 20 60
18.07.2019 10:00:00 26,6 21,8 4 2 NE 1010,9 10 60
18.07.2019 09:00:00 25,8 22,1 4 2 NE 1010,9 10 60
18.07.2019 08:00:00 24,2 23,2 0 0 N 1010,3 10 54
18.07.2019 07:00:00 - - - - - - - -
18.07.2019 06:00:00 - - - - - - - -
18.07.2019 05:00:00 - - - - - - - -
18.07.2019 04:00:00 - - - - - - - -
18.07.2019 03:00:00 - - - - - - - -
18.07.2019 02:00:00 - - - - - - - -
18.07.2019 01:00:00 - - - - - - - -
18.07.2019 00:00:00 - - - - - - - -
17.07.2019 23:00:00 - - - - - - - -
17.07.2019 22:00:00 - - - - - - - -
17.07.2019 21:00:00 - - - - - - - -
17.07.2019 20:00:00 24,8 21,1 8 4 OSO 1010,8 20 12
17.07.2019 19:00:00 25,2 20,2 9 5 O 1010,8 20 60
17.07.2019 18:00:00 26,2 17,6 11 6 O 1010,8 20 60
17.07.2019 17:00:00 27,2 14,6 13 7 O 1010,9 20 60
17.07.2019 16:00:00 28,2 15,5 11 6 SO 1010,9 20 60
17.07.2019 15:00:00 28,8 15,0 8 4 OSO 1010,8 20 60
17.07.2019 14:00:00 28,8 15,7 8 4 E 1010,7 20 60
17.07.2019 13:00:00 28,8 17,0 15 8 E 1010,7 20 60
17.07.2019 12:00:00 28,2 16,5 13 7 E 1010,6 20 60
17.07.2019 11:00:00 27,6 16,6 11 6 ENE 1010,8 20 60
17.07.2019 10:00:00 27,4 16,4 13 7 ENE 1009,9 20 60
17.07.2019 09:00:00 26,0 16,3 8 4 N 1009,8 20 60
17.07.2019 08:00:00 23,4 16,5 5 3 ONO 1009,7 20 60
17.07.2019 07:00:00 - - - - - - - -
17.07.2019 06:00:00 - - - - - - - -

tt = Temperatura
td = dewpoint
ff = velocità del vento
dd = direzione del vento
ppp = reduced air pressure
vv = visibility
sd = ore di luce

Stazioni seguenti

WeatherPro
AMSI
MeteoEarth